MDT,Max TemperatureF,Mean TemperatureF,Min TemperatureF,Max Dew PointF,MeanDew PointF,Min DewpointF,Max Humidity, Mean Humidity, Min Humidity, Max Sea Level PressureIn, Mean Sea Level PressureIn, Min Sea Level PressureIn, Max VisibilityMiles, Mean VisibilityMiles, Min VisibilityMiles, Max Wind SpeedMPH, Mean Wind SpeedMPH, Max Gust SpeedMPH,PrecipitationIn, CloudCover, Events, WindDirDegrees
2014-4-1,38,32,25,28,26,25,92,81,70,29.96,29.90,29.80,10,7,1,10,6,16,T,8,Snow,44
2014-4-2,49,38,26,32,28,21,100,69,37,30.00,29.86,29.74,10,10,10,22,6,25,T,5,,193
2014-4-3,52,38,23,30,25,17,100,63,26,30.13,30.00,29.87,10,8,0,17,7,22,T,4,Fog-Snow,235
2014-4-4,55,42,28,26,22,17,75,50,24,29.91,29.80,29.73,10,10,10,26,15,32,0.00,1,,227
2014-4-5,54,41,28,26,22,16,85,55,24,29.92,29.88,29.83,10,10,10,26,15,36,0.00,2,,244
2014-4-6,58,44,29,29,25,19,75,49,23,30.15,29.92,29.84,10,10,10,33,17,39,T,4,Rain,254
2014-4-7,66,47,28,31,26,22,78,51,23,30.19,30.14,30.08,10,10,10,25,14,32,0.00,1,,245
2014-4-8,70,57,44,33,30,24,62,42,22,30.07,29.93,29.80,10,10,10,33,18,41,0.00,0,,220
2014-4-9,57,46,34,36,29,21,67,51,35,29.99,29.87,29.68,10,10,10,30,12,37,0.00,3,,306
2014-4-10,63,49,34,25,20,13,64,39,14,30.00,29.95,29.87,10,10,10,32,16,38,0.00,0,,233
2014-4-11,64,49,34,29,24,21,57,39,21,29.93,29.81,29.70,10,10,2,31,17,37,0.00,3,,246
2014-4-12,38,27,16,34,26,17,100,93,85,30.40,30.10,29.89,10,3,0,22,11,26,0.41,8,Fog-Rain-Snow,359
2014-4-13,43,25,6,20,14,5,100,66,32,30.52,30.46,30.29,10,10,9,21,7,29,0.00,1,,259
2014-4-14,61,43,25,19,16,10,68,41,14,30.41,30.11,29.82,10,10,10,23,15,33,0.00,0,,221
2014-4-15,52,44,36,38,29,16,86,56,26,29.91,29.76,29.68,10,9,4,29,14,38,0.05,6,Rain,271
2014-4-16,46,39,31,37,33,29,100,77,53,30.07,29.99,29.87,10,10,6,17,7,20,0.03,6,Rain,350
2014-4-17,60,47,33,42,33,28,86,61,36,30.02,29.86,29.70,10,10,9,21,10,26,0.03,6,Rain,204
2014-4-18,56,45,34,43,28,13,92,56,19,29.91,29.73,29.64,10,10,10,38,19,47,0.04,4,Rain,230
2014-4-19,64,47,29,21,16,8,59,35,11,30.00,29.90,29.80,10,10,10,24,11,30,0.00,0,,216
2014-4-20,60,48,36,31,20,13,59,37,15,30.24,30.07,29.82,10,10,10,32,16,41,0.00,1,,257
2014-4-21,69,50,31,27,22,17,63,39,14,30.25,30.09,29.83,10,10,10,16,9,21,0.00,0,,181
2014-4-22,70,54,37,47,38,25,100,64,27,29.82,29.57,29.38,10,8,2,28,9,33,0.70,5,Rain,257
2014-4-23,54,44,34,42,28,21,89,61,32,29.82,29.69,29.54,10,10,6,38,22,46,0.08,3,Rain,240
2014-4-24,57,45,32,36,31,28,85,62,38,29.85,29.80,29.73,10,10,10,28,14,37,T,4,,230
2014-4-25,59,49,38,39,29,25,89,59,28,29.81,29.73,29.65,10,10,4,24,10,32,0.19,2,Rain,89
2014-4-26,43,37,31,41,35,28,100,91,82,29.78,29.63,29.54,10,8,2,16,11,20,0.23,8,Rain,341
2014-4-27,55,42,28,33,27,21,92,60,28,29.81,29.73,29.64,10,10,10,24,11,32,T,3,,250
2014-4-28,55,42,29,27,23,19,78,52,26,30.37,30.05,29.76,10,10,10,25,14,33,T,2,,280
2014-4-29,61,46,31,27,21,15,69,44,18,30.58,30.52,30.40,10,10,10,22,12,29,0.00,3,,319
2014-4-30,66,47,28,27,22,16,75,45,15,30.61,30.50,30.34,10,10,10,15,7,21,0.00,0,,228